Total_Precipitation_Accumulation
0.09 0.10 0.08 0.11 0.11 0.09 0.09 0.05 0.03 0.03 0.04 0.03 0.03 0.03 0.03 0.02 0.02 0.03 0.01 0.01 0.00 0.01 0.04 0.08 0.07 0.07 0.09 0.09 0.07 0.05 0.05 0.06 0.08 0.13 0.14 0.14 0.13 0.10 0.11 0.12 0.13 0.17 0.20 0.19 0.13 0.08 0.05 0.04 0.03
0.10 0.11 0.19 0.23 0.15 0.10 0.05 0.04 0.03 0.03 0.03 0.04 0.04 0.05 0.06 0.06 0.05 0.04 0.04 0.02 0.01 0.01 0.04 0.06 0.07 0.07 0.09 0.07 0.05 0.04 0.04 0.05 0.09 0.11 0.11 0.12 0.11 0.09 0.09 0.10 0.10 0.12 0.11 0.07 0.04 0.02 0.01 0.01 0.01
0.13 0.19 0.34 0.26 0.15 0.11 0.05 0.03 0.03 0.03 0.03 0.05 0.08 0.09 0.13 0.12 0.08 0.06 0.05 0.03 0.03 0.03 0.04 0.06 0.07 0.08 0.07 0.05 0.05 0.04 0.05 0.05 0.08 0.08 0.08 0.09 0.11 0.11 0.09 0.06 0.05 0.05 0.03 0.02 0.01 0.01 0.01 0.01 0.01
0.21 0.37 0.41 0.28 0.14 0.06 0.03 0.02 0.03 0.05 0.04 0.05 0.10 0.16 0.22 0.17 0.11 0.09 0.08 0.06 0.05 0.05 0.06 0.08 0.08 0.08 0.06 0.05 0.04 0.05 0.05 0.05 0.06 0.05 0.06 0.08 0.11 0.15 0.12 0.04 0.02 0.01 0.01 0.01 0.01 0.01 0.00 0.00 0.01
0.37 0.54 0.43 0.27 0.13 0.05 0.03 0.02 0.03 0.06 0.06 0.06 0.10 0.20 0.31 0.25 0.21 0.21 0.15 0.10 0.07 0.07 0.08 0.11 0.10 0.09 0.06 0.05 0.05 0.05 0.05 0.06 0.05 0.04 0.06 0.07 0.09 0.13 0.13 0.06 0.01 0.00 0.00 0.00 0.00 0.00 0.01 0.00 0.01
0.56 0.56 0.45 0.26 0.10 0.04 0.03 0.03 0.04 0.05 0.07 0.07 0.11 0.23 0.39 0.39 0.38 0.37 0.28 0.17 0.11 0.09 0.11 0.14 0.14 0.11 0.07 0.05 0.05 0.05 0.06 0.05 0.05 0.05 0.06 0.05 0.06 0.08 0.11 0.07 0.02 0.00 0.00 0.00 0.01 0.01 0.01 0.02 0.02
0.56 0.46 0.35 0.20 0.08 0.03 0.02 0.03 0.05 0.05 0.06 0.08 0.09 0.28 0.43 0.53 0.55 0.52 0.46 0.33 0.22 0.15 0.15 0.16 0.14 0.11 0.09 0.06 0.05 0.05 0.06 0.05 0.04 0.04 0.04 0.04 0.03 0.03 0.04 0.03 0.01 0.00 0.01 0.01 0.02 0.02 0.02 0.03 0.03
0.57 0.58 0.32 0.18 0.11 0.05 0.04 0.04 0.05 0.06 0.07 0.08 0.11 0.26 0.42 0.52 0.66 0.73 0.66 0.58 0.42 0.28 0.21 0.17 0.13 0.11 0.09 0.06 0.05 0.04 0.05 0.04 0.03 0.02 0.02 0.01 0.01 0.01 0.02 0.01 0.01 0.01 0.02 0.02 0.02 0.02 0.03 0.02 0.01
0.66 0.75 0.39 0.15 0.11 0.08 0.08 0.08 0.05 0.06 0.10 0.13 0.14 0.22 0.35 0.51 0.72 0.94 0.90 0.82 0.65 0.45 0.30 0.20 0.15 0.11 0.08 0.06 0.04 0.04 0.04 0.03 0.02 0.01 0.01 0.00 0.01 0.01 0.01 0.00 0.00 0.01 0.01 0.01 0.01 0.01 0.01 0.01 0.00
0.74 0.68 0.30 0.11 0.11 0.12 0.13 0.13 0.10 0.09 0.14 0.20 0.26 0.29 0.45 0.63 0.80 0.98 1.02 0.85 0.72 0.56 0.39 0.25 0.18 0.13 0.08 0.05 0.04 0.03 0.03 0.02 0.01 0.01 0.01 0.01 0.00 0.00 0.00 0.00 0.00 0.00 0.01 0.01 0.01 0.00 0.00 0.00 0.00
0.54 0.41 0.25 0.18 0.18 0.19 0.20 0.18 0.16 0.14 0.15 0.16 0.21 0.30 0.49 0.68 0.82 0.91 1.05 0.94 0.77 0.66 0.50 0.35 0.25 0.17 0.09 0.05 0.04 0.03 0.02 0.02 0.01 0.01 0.00 0.00 0.00 0.00 0.00 0.00 0.00 0.00 0.00 0.00 0.00 0.00 0.00 0.00 0.00
0.36 0.26 0.27 0.28 0.26 0.28 0.26 0.23 0.19 0.16 0.12 0.12 0.20 0.29 0.45 0.61 0.69 0.78 0.93 0.97 0.85 0.69 0.60 0.44 0.33 0.22 0.12 0.06 0.04 0.02 0.02 0.02 0.02 0.01 0.01 0.00 0.00 0.00 0.00 0.00 0.00 0.01 0.00 0.00 0.00 0.00 0.00 0.00 0.00
0.31 0.26 0.28 0.34 0.34 0.33 0.31 0.29 0.24 0.18 0.14 0.17 0.28 0.39 0.47 0.58 0.66 0.72 0.81 0.91 0.88 0.72 0.63 0.53 0.41 0.30 0.16 0.09 0.05 0.02 0.01 0.01 0.01 0.01 0.01 0.00 0.00 0.00 0.00 0.00 0.01 0.01 0.01 0.01 0.01 0.00 0.00 0.00 0.00
0.28 0.29 0.35 0.40 0.42 0.39 0.40 0.36 0.32 0.24 0.21 0.27 0.38 0.47 0.56 0.65 0.68 0.73 0.76 0.82 0.77 0.72 0.64 0.57 0.50 0.39 0.24 0.12 0.07 0.05 0.02 0.01 0.01 0.00 0.00 0.00 0.00 0.00 0.01 0.01 0.01 0.01 0.01 0.01 0.00 0.00 0.00 0.00 0.00
0.35 0.42 0.48 0.50 0.49 0.46 0.51 0.56 0.36 0.26 0.27 0.30 0.36 0.46 0.54 0.67 0.77 0.79 0.76 0.79 0.73 0.69 0.66 0.60 0.54 0.50 0.36 0.22 0.16 0.12 0.06 0.02 0.01 0.01 0.01 0.01 0.01 0.01 0.01 0.01 0.01 0.01 0.01 0.01 0.01 0.00 0.00 0.00 0.00
0.68 0.63 0.59 0.50 0.50 0.49 0.60 0.61 0.34 0.25 0.29 0.28 0.29 0.38 0.49 0.59 0.74 0.80 0.82 0.85 0.84 0.78 0.72 0.66 0.54 0.56 0.50 0.35 0.27 0.22 0.14 0.08 0.04 0.02 0.02 0.01 0.01 0.01 0.01 0.01 0.01 0.01 0.01 0.01 0.01 0.02 0.02 0.02 0.01
0.79 0.57 0.41 0.39 0.43 0.49 0.55 0.46 0.35 0.26 0.25 0.26 0.27 0.31 0.41 0.51 0.61 0.69 0.77 0.83 0.87 0.86 0.79 0.71 0.59 0.55 0.58 0.49 0.42 0.37 0.28 0.17 0.11 0.08 0.05 0.05 0.04 0.04 0.03 0.02 0.03 0.03 0.02 0.02 0.03 0.02 0.03 0.02 0.02
0.42 0.31 0.25 0.26 0.29 0.35 0.39 0.32 0.33 0.29 0.23 0.20 0.21 0.24 0.30 0.39 0.44 0.52 0.65 0.83 0.89 0.90 0.83 0.77 0.68 0.64 0.67 0.68 0.60 0.51 0.41 0.30 0.24 0.18 0.16 0.14 0.12 0.10 0.07 0.05 0.04 0.05 0.04 0.04 0.05 0.05 0.04 0.03 0.03
0.33 0.28 0.23 0.16 0.16 0.23 0.24 0.22 0.26 0.29 0.23 0.18 0.17 0.19 0.20 0.28 0.35 0.43 0.53 0.71 0.87 0.95 0.91 0.81 0.78 0.73 0.73 0.72 0.65 0.57 0.51 0.48 0.40 0.34 0.33 0.27 0.20 0.17 0.15 0.10 0.10 0.10 0.09 0.10 0.10 0.09 0.07 0.06 0.08
0.37 0.34 0.29 0.21 0.15 0.18 0.18 0.18 0.19 0.22 0.21 0.15 0.13 0.13 0.13 0.18 0.27 0.33 0.45 0.57 0.70 0.84 0.89 0.84 0.82 0.80 0.75 0.70 0.77 0.86 0.88 0.78 0.64 0.54 0.47 0.42 0.34 0.29 0.23 0.18 0.17 0.15 0.12 0.12 0.11 0.12 0.12 0.11 0.13
0.38 0.28 0.27 0.28 0.25 0.23 0.21 0.19 0.14 0.14 0.14 0.10 0.09 0.08 0.09 0.12 0.19 0.24 0.32 0.47 0.55 0.68 0.80 0.84 0.81 0.78 0.75 0.80 1.00 1.14 1.16 0.98 0.78 0.61 0.53 0.50 0.48 0.45 0.38 0.31 0.26 0.21 0.17 0.14 0.15 0.18 0.18 0.16 0.15
0.38 0.22 0.22 0.30 0.36 0.31 0.21 0.20 0.08 0.08 0.08 0.06 0.05 0.05 0.06 0.08 0.12 0.16 0.19 0.33 0.42 0.48 0.63 0.74 0.81 0.78 0.80 0.83 0.90 0.91 0.87 0.77 0.70 0.71 0.66 0.63 0.59 0.55 0.50 0.42 0.35 0.29 0.25 0.20 0.19 0.21 0.23 0.24 0.20
0.38 0.27 0.29 0.36 0.44 0.40 0.21 0.15 0.06 0.05 0.05 0.04 0.02 0.03 0.04 0.06 0.08 0.12 0.12 0.16 0.26 0.35 0.50 0.60 0.70 0.74 0.71 0.74 0.76 0.84 0.80 0.74 0.72 0.72 0.67 0.61 0.58 0.56 0.55 0.51 0.46 0.38 0.32 0.31 0.30 0.29 0.29 0.29 0.27
0.46 0.53 0.53 0.52 0.68 0.61 0.24 0.13 0.07 0.04 0.03 0.03 0.02 0.02 0.03 0.04 0.06 0.09 0.08 0.09 0.15 0.21 0.35 0.48 0.57 0.65 0.68 0.68 0.72 0.76 0.70 0.62 0.57 0.54 0.54 0.53 0.51 0.48 0.47 0.49 0.47 0.44 0.40 0.38 0.37 0.38 0.38 0.37 0.36
0.81 1.04 1.16 1.03 0.90 0.51 0.17 0.14 0.08 0.03 0.02 0.03 0.03 0.02 0.01 0.03 0.04 0.05 0.05 0.06 0.10 0.13 0.19 0.27 0.37 0.44 0.52 0.56 0.59 0.63 0.63 0.60 0.55 0.50 0.50 0.51 0.46 0.41 0.40 0.41 0.41 0.43 0.45 0.47 0.47 0.45 0.43 0.45 0.43
0.79 0.90 0.92 0.69 0.41 0.22 0.15 0.17 0.08 0.02 0.02 0.02 0.03 0.03 0.01 0.01 0.02 0.02 0.02 0.03 0.06 0.10 0.12 0.14 0.17 0.24 0.31 0.35 0.37 0.41 0.46 0.49 0.48 0.47 0.46 0.45 0.42 0.39 0.40 0.40 0.42 0.43 0.45 0.45 0.46 0.45 0.44 0.45 0.44
0.76 0.73 0.56 0.64 0.43 0.28 0.19 0.13 0.06 0.02 0.01 0.02 0.02 0.03 0.02 0.02 0.02 0.02 0.02 0.02 0.03 0.03 0.04 0.07 0.09 0.13 0.18 0.24 0.27 0.30 0.32 0.35 0.37 0.39 0.39 0.41 0.38 0.37 0.38 0.39 0.39 0.39 0.39 0.39 0.40 0.40 0.38 0.38 0.38
0.65 0.58 0.67 0.92 0.74 0.43 0.19 0.11 0.08 0.02 0.01 0.01 0.01 0.02 0.02 0.02 0.03 0.02 0.02 0.02 0.02 0.01 0.01 0.03 0.06 0.09 0.12 0.16 0.20 0.21 0.23 0.25 0.29 0.29 0.26 0.27 0.30 0.31 0.31 0.32 0.32 0.31 0.31 0.31 0.32 0.31 0.30 0.30 0.31
0.58 0.63 0.69 0.69 0.52 0.46 0.28 0.15 0.07 0.02 0.01 0.02 0.01 0.01 0.01 0.02 0.02 0.02 0.02 0.02 0.02 0.01 0.01 0.02 0.04 0.06 0.09 0.11 0.13 0.15 0.16 0.18 0.19 0.20 0.21 0.21 0.21 0.20 0.21 0.22 0.22 0.23 0.22 0.22 0.23 0.23 0.23 0.25 0.27
0.45 0.43 0.53 0.74 0.52 0.40 0.34 0.17 0.06 0.03 0.03 0.03 0.03 0.03 0.03 0.02 0.02 0.01 0.01 0.01 0.01 0.02 0.03 0.04 0.05 0.06 0.07 0.08 0.08 0.10 0.12 0.14 0.16 0.18 0.18 0.17 0.16 0.14 0.14 0.15 0.16 0.16 0.15 0.15 0.16 0.17 0.19 0.21 0.24